Simultaneous Nadir Overpasses (SNOs) Predictions

Prediction of SNOs over PacNW region [( 10.00, 139.50) to ( 22.70, 165.60)] between AQUA and NPP Satellites:

Table of predicted SNOs over PacNW region for the next 30.0 days since TLE Epoch: 12/14/2019
Index Date (AQUA) Time (AQUA) AQUA Lat,Lon Date (NPP) Time (NPP) NPP Lat,Lon Distance(km) Time Diff (sec)
1 12/16/2019 15:59:10 22.58, 147.48 12/16/2019 16:01:36 23.23, 144.57 307.15 146
2 12/24/2019 15:09:44 22.60, 159.85 12/24/2019 15:10:46 23.19, 157.26 273.22 62
3 12/27/2019 03:31:35 22.69, 147.52 12/27/2019 03:28:05 26.48, 144.82 502.10 210
4 01/01/2020 15:59:11 22.63, 147.50 01/01/2020 16:01:25 23.25, 144.60 304.56 134
5 01/09/2020 15:09:44 22.60, 159.86 01/09/2020 15:10:35 23.17, 157.28 271.28 51




NCC Satellite Simultaneous Nadir Overpasses (SNOs) Prediction Service
